Volver al catálogo

H-2A DEB

ActivoGTO
NORAD 28237·DEBRIS·🇯🇵 Japan

Lanzado Feb 4, 2002 desde Tanegashima Space Center

Loading…

TLE

ObsoletoSource: Space-Track

Época: Sep 13, 2026, 20:51 UTC

1 28237U 02003D   26256.86907361  .00004067  00000-0  41279-2 0  9990
2 28237  28.2875 140.5990 7089026 128.7063 318.7861  2.47750101211996

Sigue H-2A DEB en tiempo real con AllMySat

Download on the App Store